Weather History for Pinedale, WY

Change the Weather History Date:

Thursday, August 1, 2013

  Actual Average (KBPI) Record (KBPI)
Temperature  
Mean Temperature 64 °F 63 °F  
Max Temperature 84 °F 82 °F 90 °F (2008)
Min Temperature 44 °F 43 °F 33 °F (1995)
Degree Days  
Heating Degree Days 1 3  
Month to date heating degree days 3  
Since 1 June heating degree days 425  
Since 1 July heating degree days 120  
Cooling Degree Days 0 1  
Month to date cooling degree days 1  
Year to date cooling degree days 25  
Since 1 June cooling degree days 25  
Growing Degree Days 14 (Base 50)    
Moisture  
Dew Point 39 °F    
Average Humidity 49    
Maximum Humidity 93    
Minimum Humidity 12    
Precipitation  
Precipitation 0.00 in 0.02 in 0.55 in (2005)
Month to date precipitation 0.02  
Year to date precipitation 3.99  
Sea Level Pressure  
Sea Level Pressure 30.19 in    
Wind  
Wind Speed 7 mph (SW)    
Max Wind Speed 20 mph    
Max Gust Speed 34 mph    
Visibility 10 miles    
Events Rain , Thunderstorm    
T = Trace of Precipitation, MM = Missing Value Source: NWS Daily Summary

Daily Weather History Graph

Daily Weather History Graph

Search for Another Location

Airport:

Trip Planner

Search our weather history database for the weather conditions in past years. The results will help you decide how hot, cold, wet, or windy it might be!

Date:

Astronomy

Aug. 01, 2013 Rise Set
Actual Time 6:10 AM MDT 8:39 PM MDT
Civil Twilight 5:38 AM MDT 9:11 PM MDT
Nautical Twilight 4:58 AM MDT 9:51 PM MDT
Astronomical Twilight 4:13 AM MDT 10:35 PM MDT
Moon 1:49 AM MDT (8/1) 4:52 PM MDT (8/1)
Length of Visible Light 15h 32m
Length of Day
14h 28m
Waning Crescent, 23% of the Moon is Illuminated
Aug 1
Waning Crescent
Aug 6
New
Aug 14
First Quarter
Aug 20
Full
Aug 28
Last Quarter

Hourly Weather History & Observations

Time (MDT) Temp. Windchill Dew Point Humidity Pressure Visibility Wind Dir Wind Speed Gust Speed Precip Events Conditions
12:15 AM 51.8 °F - 44.6 °F 76% 30.31 in 10.0 mi WNW 4.6 mph - N/A   Clear
12:35 AM 50.0 °F - 44.6 °F 82% 30.31 in 10.0 mi West 4.6 mph - N/A   Clear
12:55 AM 50.0 °F - 44.6 °F 82% 30.30 in 10.0 mi West 4.6 mph - N/A   Clear
1:15 AM 50.0 °F - 44.6 °F 82% 30.30 in 10.0 mi West 4.6 mph - N/A   Clear
1:35 AM 48.2 °F - 42.8 °F 82% 30.29 in 10.0 mi WNW 5.8 mph - N/A   Clear
1:55 AM 46.4 °F 44.3 °F 44.6 °F 93% 30.29 in 10.0 mi NW 4.6 mph - N/A   Clear
2:15 AM 48.2 °F - 44.6 °F 87% 30.29 in 10.0 mi NW 4.6 mph - N/A   Clear
2:35 AM 46.4 °F 42.9 °F 44.6 °F 93% 30.29 in 10.0 mi WNW 6.9 mph - N/A   Clear
2:55 AM 46.4 °F 42.9 °F 42.8 °F 87% 30.28 in 10.0 mi WNW 6.9 mph - N/A   Clear
3:15 AM 44.6 °F 39.2 °F 42.8 °F 93% 30.28 in 10.0 mi WSW 10.4 mph - N/A   Clear
3:35 AM 44.6 °F 39.2 °F 42.8 °F 93% 30.28 in 10.0 mi West 10.4 mph - N/A   Clear
3:55 AM 46.4 °F 44.3 °F 42.8 °F 87% 30.27 in 10.0 mi West 4.6 mph - N/A   Clear
4:15 AM 46.4 °F 42.9 °F 42.8 °F 87% 30.28 in 10.0 mi West 6.9 mph - N/A   Clear
4:35 AM 44.6 °F 40.2 °F 42.8 °F 93% 30.27 in 10.0 mi West 8.1 mph - N/A   Clear
4:55 AM 46.4 °F 44.3 °F 42.8 °F 87% 30.27 in 10.0 mi West 4.6 mph - N/A   Clear
5:15 AM 44.6 °F 43.1 °F 42.8 °F 93% 30.27 in 10.0 mi WNW 3.5 mph - N/A   Scattered Clouds
5:35 AM 46.4 °F 43.5 °F 42.8 °F 87% 30.27 in 10.0 mi NW 5.8 mph - N/A   Scattered Clouds
5:55 AM 46.4 °F 42.9 °F 42.8 °F 87% 30.27 in 10.0 mi NW 6.9 mph - N/A   Clear
6:15 AM 44.6 °F 42.2 °F 42.8 °F 93% 30.27 in 10.0 mi WNW 4.6 mph - N/A   Clear
6:35 AM 44.6 °F 42.2 °F 42.8 °F 93% 30.28 in 10.0 mi WNW 4.6 mph - N/A   Clear
6:55 AM 46.4 °F - 44.6 °F 93% 30.27 in 10.0 mi Calm Calm - N/A   Clear
7:15 AM 48.2 °F - 44.6 °F 87% 30.27 in 10.0 mi NW 3.5 mph - N/A   Clear
7:35 AM 51.8 °F - 42.8 °F 71% 30.27 in 10.0 mi WNW 4.6 mph - N/A   Clear
7:55 AM 51.8 °F - 42.8 °F 71% 30.27 in 10.0 mi WNW 3.5 mph - N/A   Clear
8:15 AM 55.4 °F - 44.6 °F 67% 30.27 in 10.0 mi Calm Calm - N/A   Scattered Clouds
8:35 AM 55.4 °F - 44.6 °F 67% 30.27 in 10.0 mi Calm Calm - N/A   Scattered Clouds
8:55 AM 59.0 °F - 42.8 °F 55% 30.27 in 10.0 mi NW 3.5 mph - N/A   Scattered Clouds
9:15 AM 60.8 °F - 42.8 °F 52% 30.27 in 10.0 mi Calm Calm - N/A   Scattered Clouds
9:35 AM 64.4 °F - 42.8 °F 45% 30.26 in 10.0 mi East 4.6 mph - N/A   Scattered Clouds
9:55 AM 64.4 °F - 42.8 °F 45% 30.26 in 10.0 mi East 5.8 mph - N/A   Scattered Clouds
10:15 AM 69.8 °F - 42.8 °F 38% 30.25 in 10.0 mi East 6.9 mph - N/A   Scattered Clouds
10:35 AM 71.6 °F - 41.0 °F 33% 30.25 in 10.0 mi SE 10.4 mph - N/A   Clear
10:55 AM 73.4 °F - 37.4 °F 27% 30.24 in 10.0 mi South 9.2 mph - N/A   Clear
11:15 AM 73.4 °F - 37.4 °F 27% 30.24 in 10.0 mi South 8.1 mph - N/A   Clear
11:35 AM 75.2 °F - 35.6 °F 24% 30.23 in 10.0 mi South 8.1 mph - N/A   Clear
11:55 AM 77.0 °F - 35.6 °F 22% 30.22 in 10.0 mi SSW 5.8 mph - N/A   Clear
12:15 PM 77.0 °F - 35.6 °F 22% 30.21 in 10.0 mi SSW 4.6 mph - N/A   Clear
12:35 PM 78.8 °F - 32.0 °F 18% 30.21 in 10.0 mi West 12.7 mph 18.4 mph N/A   Scattered Clouds
12:55 PM 78.8 °F - 32.0 °F 18% 30.20 in 10.0 mi SSW 5.8 mph 20.7 mph N/A   Scattered Clouds
1:15 PM 78.8 °F - 32.0 °F 18% 30.19 in 10.0 mi WSW 9.2 mph - N/A   Scattered Clouds
1:35 PM 78.8 °F - 33.8 °F 20% 30.18 in 10.0 mi SSW 6.9 mph - N/A   Scattered Clouds
1:55 PM 80.6 °F - 32.0 °F 17% 30.17 in 10.0 mi SSW 10.4 mph 20.7 mph N/A   Scattered Clouds
2:15 PM 80.6 °F - 32.0 °F 17% 30.16 in 10.0 mi South 5.8 mph 18.4 mph N/A   Scattered Clouds
2:35 PM 82.4 °F - 32.0 °F 16% 30.15 in 10.0 mi South 10.4 mph 16.1 mph N/A   Scattered Clouds
2:55 PM 82.4 °F - 32.0 °F 16% 30.14 in 10.0 mi SW 10.4 mph 17.3 mph N/A   Scattered Clouds
3:15 PM 82.4 °F - 32.0 °F 16% 30.13 in 10.0 mi SW 6.9 mph 21.9 mph N/A   Clear
3:35 PM 82.4 °F - 32.0 °F 16% 30.12 in 10.0 mi SSW 10.4 mph 20.7 mph N/A   Clear
3:55 PM 82.4 °F - 32.0 °F 16% 30.11 in 10.0 mi South 6.9 mph 18.4 mph N/A   Clear
4:15 PM 82.4 °F - 32.0 °F 16% 30.09 in 10.0 mi SSW 10.4 mph 18.4 mph N/A   Scattered Clouds
4:35 PM 84.2 °F - 28.4 °F 13% 30.09 in 10.0 mi WSW 16.1 mph 23.0 mph N/A   Scattered Clouds
4:55 PM 84.2 °F - 26.6 °F 12% 30.09 in 10.0 mi SW 17.3 mph 24.2 mph N/A   Clear
5:15 PM 84.2 °F - 28.4 °F 13% 30.09 in 10.0 mi SW 11.5 mph 21.9 mph N/A   Scattered Clouds
5:35 PM 82.4 °F - 26.6 °F 13% 30.08 in 10.0 mi SW 15.0 mph 25.3 mph N/A   Clear
5:55 PM 82.4 °F - 28.4 °F 14% 30.08 in 10.0 mi SW 10.4 mph 20.7 mph N/A   Clear
6:15 PM 82.4 °F - 28.4 °F 14% 30.07 in 10.0 mi SW 10.4 mph 21.9 mph N/A   Clear
6:35 PM 82.4 °F - 28.4 °F 14% 30.07 in 10.0 mi SW 11.5 mph 16.1 mph N/A   Clear
6:55 PM 80.6 °F - 30.2 °F 16% 30.06 in 10.0 mi SSW 11.5 mph - N/A   Clear
7:15 PM 80.6 °F - 30.2 °F 16% 30.06 in 10.0 mi WSW 9.2 mph - N/A   Clear
7:35 PM 80.6 °F - 30.2 °F 16% 30.07 in 10.0 mi SW 8.1 mph - N/A   Clear
7:55 PM 73.4 °F - 41.0 °F 31% 30.08 in 10.0 mi SSE 16.1 mph 34.5 mph N/A   Clear
8:15 PM 71.6 °F - 42.8 °F 35% 30.08 in 10.0 mi South 19.6 mph 29.9 mph N/A   Clear
8:35 PM 71.6 °F - 42.8 °F 35% 30.08 in 10.0 mi South 18.4 mph 29.9 mph N/A   Scattered Clouds
8:55 PM 69.8 °F - 42.8 °F 38% 30.10 in 10.0 mi SE 16.1 mph 21.9 mph N/A   Scattered Clouds
9:15 PM 68.0 °F - 42.8 °F 40% 30.11 in 10.0 mi ESE 12.7 mph 20.7 mph N/A   Mostly Cloudy
9:35 PM 66.2 °F - 44.6 °F 46% 30.10 in 10.0 mi East 19.6 mph 28.8 mph N/A   Scattered Clouds
9:55 PM 64.4 °F - 46.4 °F 52% 30.11 in 10.0 mi East 15.0 mph 25.3 mph N/A   Mostly Cloudy
10:15 PM 64.4 °F - 44.6 °F 49% 30.13 in 10.0 mi SSE 6.9 mph - N/A Thunderstorm Overcast
10:35 PM 66.2 °F - 42.8 °F 43% 30.11 in 10.0 mi SE 12.7 mph 18.4 mph N/A Rain Light Rain
10:55 PM 62.6 °F - 46.4 °F 55% 30.13 in 10.0 mi SE 10.4 mph - N/A Thunderstorm Mostly Cloudy
11:15 PM 60.8 °F - 46.4 °F 59% 30.13 in 10.0 mi SE 11.5 mph - N/A Thunderstorm Mostly Cloudy
11:35 PM 60.8 °F - 46.4 °F 59% 30.14 in 10.0 mi SE 4.6 mph - N/A Thunderstorm Thunderstorm
11:55 PM 59.0 °F - 46.4 °F 63% 30.09 in 10.0 mi East 12.7 mph - N/A Thunderstorm Mostly Cloudy